Location: Gniazdowice
(50.2124°N, 20.2673°E)
Time: 23:26:09
(UTC+00:00)

USA 267 - Pass Details

Date: 23 May 2024
Orbit: 1100 x 1107 km, 123.0° (Epoch: 21 May)

Event Time Altitude Azimuth Distance (km) Brightness Sun altitude
Rises 00:13:15 0° 61° (ENE) 3,922 7.0 -15.9°
Reaches altitude 10° 00:15:44 10° 59° (ENE) 2,963 6.4 -15.8°
Maximum altitude 00:22:12 65° 340° (NNW) 1,202 3.6 -15.3°
Drops below altitude 10° 00:28:38 10° 260° (W) 2,957 5.2 -14.9°
Enters shadow 00:30:21 - 258° (WSW) 3,611 5.6 -14.8°
